Regional Weather Roundup
Issued by NWS

Home | Current Version | Previous Version | Text Only | Print | Product List | Glossary On
Versions: 1 2 3 4 5 6 7 8 9 10 11 12 13 14 15 16 17 18 19 20 21 22 23 24 25 26 27
000
ASUS44 KBMX 261610
RWRAL

ALABAMA REGIONAL WEATHER ROUNDUP
NATIONAL WEATHER SERVICE BIRMINGHAM AL
1100 AM CDT MON JUN 26 2017

NOTE: "FAIR" INDICATES FEW OR NO CLOUDS BELOW 12,000 FEET
WITH NO SIGNIFICANT WEATHER AND/OR OBSTRUCTIONS TO VISIBILITY.

THE REMARK "TC" DENOTES TEMPERATURE IN DEGREES CELSIUS.

ALZ001>011-014-016>018-020-261700-
NORTH ALABAMA

CITY           SKY/WX    TMP DP  RH WIND       PRES   REMARKS
MUSCLE SHOALS  SUNNY     83  54  36 NW6       30.22S
HUNTSVILLE     MOSUNNY   81  59  47 W6        30.20S
DECATUR        SUNNY     80  59  48 NW5       30.21S
HALEYVILLE     NOT AVBL
GADSDEN        NOT AVBL
$$

ALZ012-013-022-023-030>036-040>044-261700-
WEST CENTRAL ALABAMA

CITY           SKY/WX    TMP DP  RH WIND       PRES   REMARKS
TUSCALOOSA     SUNNY     82  58  43 NE14      30.18F
$$

ALZ015-024>027-033>036-040>044-261700-
CENTRAL ALABAMA

CITY           SKY/WX    TMP DP  RH WIND       PRES   REMARKS
BIRMINGHAM     MOSUNNY   81  53  37 N12       30.22S
MONTGOMERY     SUNNY     82  58  43 N8        30.14F
SHELBY CO ARPT SUNNY     81  53  37 VRB7      30.18F
MAXWELL AFB    SUNNY     80  60  50 NE9       30.14F
GREENVILLE     FAIR      80  58  46 N9        30.13F
$$

ALZ019-021-028-029-037-038-045>048-261700-
EAST CENTRAL ALABAMA

CITY           SKY/WX    TMP DP  RH WIND       PRES   REMARKS
ANNISTON       SUNNY     80  54  40 N12       30.19F
ALEXANDER CITY SUNNY     78  60  52 N3        30.18R
AUBURN         SUNNY     79  63  57 NE12G18   30.16F
$$

ALZ051>064-261700-
SOUTHWEST ALABAMA

CITY           SKY/WX    TMP DP  RH WIND       PRES   REMARKS
MOBILE         MOSUNNY   82  63  52 NE6       30.14S
BROOKLEY FIELD SUNNY     82  66  58 NE7       30.14S
EVERGREEN      SUNNY     81  60  48 VRB7      30.13F
$$

ALZ049-050-065>069-261700-
SOUTHEAST ALABAMA

CITY           SKY/WX    TMP DP  RH WIND       PRES   REMARKS
DOTHAN         SUNNY     81  64  56 CALM      30.15F
OZARK          MOSUNNY   80  63  55 CALM      30.11F
TROY           SUNNY     79  64  60 VRB5      30.14F
EUFAULA        FAIR      79  66  64 VRB3      30.12S
$$




USA.gov is the U.S. government's official web portal to all federal, state and local government web resources and services.